Regional Weather Roundup
Issued by NWS

Home | Current Version | Previous Version | Graphics & Text | Print | Product List | Glossary On
Versions: 1 2 3 4 5 6 7 8 9 10 11 12 13 14 15 16 17 18 19 20 21 22 23 24 25 26 27 28 29 30 31 32 33 34 35 36 37 38 39 40 41 42 43 44 45 46 47 48 49 50
411
ASUS43 KMPX 181601
RWRMN
WEATHER ROUNDUP FOR MINNESOTA
NATIONAL WEATHER SERVICE TWIN CITIES/CHANHASSEN MN
1100 AM CDT WED OCT 18 2017


NOTE: "FAIR" INDICATES FEW OR NO CLOUDS BELOW 12,000 FEET WITH NO
SIGNIFICANT WEATHER AND/OR OBSTRUCTIONS TO VISIBILITY. N/A MEANS
CURRENT SKY AND/OR WEATHER CONDITIONS ARE NOT AVAILABLE.

MNZ060>063-068>070-181700-
   Twin Cities Metro

CITY           SKY/WX    TMP DP  RH WIND       PRES   REMARKS
TWIN CITIES    CLOUDY    61  48  62 S12       29.78F
ST PAUL        MOSUNNY   60  50  69 S10       29.80S
CRYSTAL        CLOUDY    61  45  55 SW9G21    29.80R
BLAINE         PTSUNNY   63  48  59 S14G22    29.77S
LAKEVILLE      CLOUDY    61  48  63 S13G20    29.79F
EDEN PRAIRIE   CLOUDY    62  48  60 SW12      29.78R
SOUTH ST PAUL  MOSUNNY   61  47  60 S12G17    29.79F
LAKE ELMO      FAIR      59  48  67 S14G20    29.80S
$$
MNZ001>005-007-008-013>017-022>024-027-028-181700-
   Northwest Minnesota

CITY           SKY/WX    TMP DP  RH WIND       PRES   REMARKS
BEMIDJI        CLOUDY    59  34  39 W20G35    29.72R
HALLOCK        CLOUDY    54  28  37 W18G25    29.69R
ROSEAU         CLOUDY    54  34  47 W13G29    29.64R
WARROAD        PTSUNNY   54  36  50 W24G35    29.62R
CROOKSTON      CLOUDY    54  30  40 W20G25    29.78R
FOSSTON        SUNNY     57  34  41 W20G26    29.77R
DETROIT LAKES  CLOUDY    59  34  38 NW25      29.81R
MOORHEAD       CLOUDY    59  34  38 NW22G30   29.85R
PARK RAPIDS    CLOUDY    60  37  42 NW20G28   29.76R
MAHNOMEN       FAIR      57  34  42 NW22G36   29.78R
$$
MNZ006-009>011-018-025>026-181700-
   North Central Minnesota

CITY           SKY/WX    TMP DP  RH WIND       PRES   REMARKS
BAUDETTE       SUNNY     61  30  31 W26G43    29.61R
FLAG ISLAND    CLOUDY    55  34  44 W23G36    29.54R
INTL FALLS     LGT RAIN  63  35  35 W16G28    29.59R
WASKISH        MOSUNNY   57  43  58 W15G23    29.67R
BIG FORK       MOSUNNY   64  37  36 W14G23    29.66R
LONGVILLE      CLOUDY    59  41  51 W8        29.72R
GRAND RAPIDS   PTSUNNY   60  42  51 W9        29.71S
CRANE LAKE     MOSUNNY   61  39  44 SW12G17   29.61S
ORR            MOSUNNY   61  37  41 SW10G16   29.60S
COOK           CLOUDY    61  43  51 SW12      29.63F
WALKER         FAIR      62  38  42 W22G31    29.73R
$$
MNZ012-019>021-037-181700-
   Northeast Minnesota

CITY           SKY/WX    TMP DP  RH WIND       PRES   REMARKS
DULUTH         MOSUNNY   60  44  55 SW21G30   29.71F
ELY            CLOUDY    61  39  44 SW10G22   29.64S
HIBBING        CLOUDY    58  42  55 SW8       29.68S
EVELETH        CLOUDY    58  36  44 SW13      29.69S
DULUTH HARBOR  CLOUDY    63  46  55 SW15      29.71S
TWO HARBORS    MOSUNNY   64  48  55 SW10      29.69F
SILVER BAY     CLOUDY    61  46  59 S12       29.66F
GRAND MARAIS     N/A     53  50  89 SW5       29.69S
G MARAIS ARPRT CLOUDY    55  41  58 S13G26    29.68F
$$
MNZ029>031-032-039>041-046>048-054>057-064-181700-
   West Central Minnesota

CITY           SKY/WX    TMP DP  RH WIND       PRES   REMARKS
FERGUS FALLS   CLOUDY    59  39  47 NW17G24   29.85R
WHEATON        CLOUDY    63  30  29 NW21G30   29.87R
MORRIS         CLOUDY    57  41  54 NW15      29.83R
ALEXANDRIA     CLOUDY    59  40  49 NW16      29.82R
ELBOW LAKE     FAIR      56  39  52 NW17G24   29.85R
WADENA         CLOUDY    59  39  47 W14G24    29.78R
GLENWOOD       CLOUDY    61  43  51 NW14G20   29.82R
APPLETON       CLOUDY    64  36  34 NW14G20   29.84R
BENSON         PTSUNNY   61  45  55 N10       29.84R
ORTONVILLE     MOSUNNY   61  37  41 NW17G24   29.85R
MADISON        MOSUNNY   66  39  37 NW17      29.85R
WILLMAR        FAIR      63  46  55 NW9       29.83R
$$
MNZ033>034-036-042>043-049>051-058-059-181700-
   Central Minnesota

CITY           SKY/WX    TMP DP  RH WIND       PRES   REMARKS
ST CLOUD       CLOUDY    58  47  66 SW8       29.80R
SAUK CENTRE    FAIR      60  43  53 NW8       29.79R
PAYNESVILLE    PTSUNNY   61  46  57 W12G22    29.80R
AITKIN         MOSUNNY   57  43  58 SW8       29.73R
PINE RIVER     CLOUDY    55  39  54 W5        29.78R
BRAINERD       CLOUDY    59  44  57 SW9       29.75S
STAPLES        CLOUDY    57  39  51 W13G18    29.77R
LONG PRAIRIE   FAIR      61  41  48 W14       29.79R
LITTLE FALLS   CLOUDY    59  36  41 W5        29.77S
LITCHFIELD     PTSUNNY   61  48  63 W9        29.81R
BUFFALO        CLOUDY    57  46  66 SW10      29.82R
MAPLE LAKE     CLOUDY    59  49  69 SW10      29.82R
HUTCHINSON     CLOUDY    62  48  62 SW9       29.83R
$$
MNZ037-044-045-052-053-181700-
   East Central Minnesota

CITY           SKY/WX    TMP DP  RH WIND       PRES   REMARKS
PRINCETON      CLOUDY    61  48  63 SW7       29.80R
MORA           CLOUDY    55  45  67 SW10G16   29.79S
CAMBRIDGE      PTSUNNY   63  46  55 SW6       29.80R
RUSH CITY      MOSUNNY   61  47  59 SW7       29.78R
MOOSE LAKE     MOSUNNY   57  45  62 SW8       29.73S
HINCKLEY       FAIR      59  48  67 SW9       29.78F
CLOQUET        MOSUNNY   59  43  55 SW9G17    29.73R
MCGREGOR       CLOUDY    59  45  58 SW9       29.74S
$$
MNZ071>073-080-081-089-090-097-098-181700-
   Southwest Minnesota

CITY           SKY/WX    TMP DP  RH WIND       PRES   REMARKS
MONTEVIDEO     MOSUNNY   66  41  39 N13G21    29.83R
GRANITE FALLS  SUNNY     67  41  39 W16       29.85R
CANBY          PTSUNNY   66  36  33 W12G21    29.87R
MARSHALL       SUNNY     65  41  41 NW23      29.85R
REDWOOD FALLS  MOSUNNY   64  44  48 W15       29.83R
OLIVIA         MOSUNNY   63  45  51 W12G22    29.82R
PIPESTONE      MOSUNNY   57  45  62 NW10      29.88R
WORTHINGTON    CLOUDY    58  46  64 SW12      29.87R
JACKSON        MOSUNNY   61  46  59 SW17      29.88R
TRACY          MOSUNNY   63  46  52 W12G17    29.86R
SLAYTON        CLOUDY    55  44  64 W8G17     29.89R
$$
MNZ065>067-074>077-082>085-091>093-181700-
   South Central Minnesota

CITY           SKY/WX    TMP DP  RH WIND       PRES   REMARKS
MANKATO        CLOUDY    59  47  64 S15       29.81F
NEW ULM          N/A     61  46  59 SW10G17   29.84R
ST JAMES       MOSUNNY   61  46  59 S16G22    29.82S
FAIRMONT       SUNNY     60  48  64 S18       29.83F
GLENCOE        PTSUNNY   59  48  65 SW10      29.83R
FARIBAULT      CLOUDY    63  48  59 S12G18    29.82F
OWATONNA       SUNNY     63  48  59 S14       29.83F
WASECA         SUNNY     63  46  55 S15G23    29.85S
$$
MNZ078>079-086>088-094>096-181700-
   Southeast Minnesota

CITY           SKY/WX    TMP DP  RH WIND       PRES   REMARKS
ROCHESTER      SUNNY     61  48  62 S17       29.89S
RED WING       CLOUDY    63  45  51 S8        29.82F
STANTON        MOSUNNY   63  47  57 S13G22    29.80F
DODGE CENTER   CLOUDY    61  46  59 S18G24    29.86F
WINONA         SUNNY     63  46  55 S6        29.89F
AUSTIN         SUNNY     59  48  67 S15       29.89S
PRESTON        SUNNY     61  46  58 S15       29.91S
$$
ABBREVIATIONS USED IN REMARKS
   TC - TEMPERATURES IN CELSIUS
  WCI - WIND CHILL INDEX
   HX - HEAT INDEX
  VSB - VISIBILITY
$$




USA.gov is the U.S. government's official web portal to all federal, state and local government web resources and services.